,,PA_Meas_PMT16A,,PR_Meas_QMR101_102,,RH_Meas_QMH101,,SR_Meas_QMS101,,TA_Meas_QMH101,,GenWind,,GenWind,
time,status,PA,status,PR,status,RH,status,SR,status,TA,status,DirAvg,status,SpdAvg,
2010-07-02, 00:00:05,VALID,917.072,VALID,0,VALID,97.0842,VALID,0,VALID,20.2863,VALID,101,VALID,0.270703,
2010-07-02, 00:01:05,VALID,917.09,VALID,0,VALID,97.0766,VALID,0,VALID,20.2863,VALID,101,VALID,0.549609,
2010-07-02, 00:02:05,VALID,917.113,VALID,0,VALID,97.0766,VALID,0,VALID,20.2863,VALID,101,VALID,0.532812,
2010-07-02, 00:03:05,VALID,917.122,VALID,0,VALID,97.0613,VALID,0,VALID,20.3058,VALID,101,VALID,0.298828,
2010-07-02, 00:04:05,VALID,917.122,VALID,0,VALID,97.0766,VALID,0,VALID,20.3058,VALID,101,VALID,0.430859,
2010-07-02, 00:05:05,VALID,917.135,VALID,0,VALID,97.069,VALID,0,VALID,20.3253,VALID,101,VALID,0.287109,
2010-07-02, 00:06:05,VALID,917.147,VALID,0,VALID,97.0461,VALID,0,VALID,20.3448,VALID,101,VALID,0.611328,
2010-07-02, 00:07:05,VALID,917.124,VALID,0,VALID,97.0385,VALID,0,VALID,20.3253,VALID,101,VALID,0.385156,
2010-07-02, 00:08:05,VALID,917.122,VALID,0,VALID,97.0385,VALID,0,VALID,20.3448,VALID,101,VALID,0.360938,
2010-07-02, 00:09:05,VALID,917.12,VALID,0,VALID,97.008,VALID,0,VALID,20.3643,VALID,101,VALID,0.299219,
2010-07-02, 00:10:05,VALID,917.112,VALID,0,VALID,96.9851,VALID,0,VALID,20.3643,VALID,101,VALID,0.175,
2010-07-02, 00:11:05,VALID,917.102,VALID,0,VALID,96.9851,VALID,0,VALID,20.3838,VALID,101,VALID,0.329688,
2010-07-02, 00:12:05,VALID,917.096,VALID,0,VALID,96.9089,VALID,0,VALID,20.3838,VALID,101,VALID,0.00234375,
2010-07-02, 00:13:05,VALID,917.079,VALID,0,VALID,96.8936,VALID,0,VALID,20.3838,VALID,101,VALID,0,
2010-07-02, 00:14:05,VALID,917.081,VALID,0,VALID,96.8784,VALID,0,VALID,20.4033,VALID,101,VALID,0,
2010-07-02, 00:15:05,VALID,917.037,VALID,0,VALID,96.8555,VALID,0,VALID,20.4033,VALID,101,VALID,0,
2010-07-02, 00:16:05,VALID,917.083,VALID,0,VALID,96.8707,VALID,0,VALID,20.4228,VALID,101,VALID,0,
2010-07-02, 00:17:05,VALID,917.064,VALID,0,VALID,96.8555,VALID,0,VALID,20.4423,VALID,101,VALID,0,
2010-07-02, 00:18:05,VALID,917.076,VALID,0,VALID,96.8174,VALID,0,VALID,20.4423,VALID,101,VALID,0.203906,
2010-07-02, 00:19:05,VALID,917.037,VALID,0,VALID,96.7716,VALID,0,VALID,20.4228,VALID,101,VALID,0.313281,
2010-07-02, 00:20:05,VALID,917.048,VALID,0,VALID,96.7488,VALID,0,VALID,20.4228,VALID,101,VALID,0.417578,
2010-07-02, 00:21:05,VALID,917.06,VALID,0,VALID,96.6878,VALID,0,VALID,20.4423,VALID,101,VALID,0.277344,
2010-07-02, 00:22:05,VALID,917.025,VALID,0,VALID,96.6573,VALID,0,VALID,20.4423,VALID,101,VALID,0.378516,
2010-07-02, 00:23:05,VALID,917.025,VALID,0,VALID,96.6344,VALID,0,VALID,20.4634,VALID,101,VALID,0.391797,
2010-07-02, 00:24:05,VALID,917.029,VALID,0,VALID,96.6039,VALID,0,VALID,20.4423,VALID,101,VALID,0.388281,
2010-07-02, 00:25:05,VALID,917.027,VALID,0,VALID,96.5277,VALID,0,VALID,20.4423,VALID,101,VALID,0.0703125,
2010-07-02, 00:26:05,VALID,917.041,VALID,0,VALID,96.4743,VALID,0,VALID,20.4423,VALID,101,VALID,0.0285156,
2010-07-02, 00:27:05,VALID,917.042,VALID,0,VALID,96.4591,VALID,0,VALID,20.5024,VALID,101,VALID,0.334375,
2010-07-02, 00:28:05,VALID,917.084,VALID,0,VALID,96.36,VALID,0,VALID,20.4618,VALID,101,VALID,0.9,
2010-07-02, 00:29:05,VALID,917.106,VALID,0,VALID,96.3142,VALID,0,VALID,20.4813,VALID,101,VALID,0.86875,
2010-07-02, 00:30:05,VALID,917.087,VALID,0,VALID,96.2837,VALID,0,VALID,20.4813,VALID,42,VALID,1.32344,
2010-07-02, 00:31:05,VALID,917.063,VALID,0,VALID,96.36,VALID,0,VALID,20.4813,VALID,64,VALID,2.28555,
2010-07-02, 00:32:05,VALID,917.086,VALID,0,VALID,96.3676,VALID,0,VALID,20.4618,VALID,33,VALID,1.51055,
2010-07-02, 00:33:05,VALID,917.091,VALID,0,VALID,96.4515,VALID,0,VALID,20.4618,VALID,328,VALID,0.316016,
2010-07-02, 00:34:05,VALID,917.074,VALID,0,VALID,96.4896,VALID,0,VALID,20.4408,VALID,328,VALID,0.176563,
2010-07-02, 00:35:05,VALID,917.075,VALID,0,VALID,96.5353,VALID,0,VALID,20.4813,VALID,328,VALID,1.06094,
2010-07-02, 00:36:05,VALID,917.062,VALID,0,VALID,96.5734,VALID,0,VALID,20.4618,VALID,34,VALID,1.17891,
2010-07-02, 00:37:05,VALID,917.041,VALID,0,VALID,96.5734,VALID,0,VALID,20.4618,VALID,43,VALID,0.779688,
2010-07-02, 00:38:05,VALID,917.007,VALID,0,VALID,96.5506,VALID,0,VALID,20.4423,VALID,39,VALID,1.74688,
2010-07-02, 00:39:05,VALID,916.965,VALID,0,VALID,96.5582,VALID,0,VALID,20.4423,VALID,321,VALID,1.38203,
2010-07-02, 00:40:05,VALID,916.989,VALID,0,VALID,96.5811,VALID,0,VALID,20.4033,VALID,319,VALID,0.66875,
2010-07-02, 00:41:05,VALID,916.952,VALID,0,VALID,96.5124,VALID,0,VALID,20.3838,VALID,47,VALID,0.990234,
2010-07-02, 00:42:05,VALID,916.981,VALID,0,VALID,96.5353,VALID,0,VALID,20.3838,VALID,8,VALID,1.28945,
2010-07-02, 00:43:05,VALID,916.957,VALID,0,VALID,96.4133,VALID,0,VALID,20.3448,VALID,30,VALID,2.26875,
2010-07-02, 00:44:05,VALID,916.958,VALID,0,VALID,96.5048,VALID,0,VALID,20.3448,VALID,12,VALID,1.71875,
2010-07-02, 00:45:05,VALID,917,VALID,0,VALID,96.4057,VALID,0,VALID,20.3448,VALID,23,VALID,1.41914,
2010-07-02, 00:46:05,VALID,916.982,VALID,0,VALID,96.2761,VALID,0,VALID,20.2863,VALID,317,VALID,0.257031,
2010-07-02, 00:47:05,VALID,916.955,VALID,0,VALID,96.2151,VALID,0,VALID,20.2653,VALID,47,VALID,1.46797,
2010-07-02, 00:48:05,VALID,916.927,VALID,0,VALID,96.1999,VALID,0,VALID,20.3253,VALID,47,VALID,1.35977,
2010-07-02, 00:49:05,VALID,916.959,VALID,0,VALID,96.1084,VALID,0,VALID,20.2863,VALID,35,VALID,0.381641,
2010-07-02, 00:50:05,VALID,916.944,VALID,0,VALID,96.0474,VALID,0,VALID,20.2863,VALID,285,VALID,1.04961,
2010-07-02, 00:51:05,VALID,916.879,VALID,0,VALID,95.8111,VALID,0,VALID,20.2083,VALID,204,VALID,1.54375,
2010-07-02, 00:52:05,VALID,916.898,VALID,0,VALID,95.3689,VALID,0,VALID,20.1888,VALID,230,VALID,1.06992,
2010-07-02, 00:53:05,VALID,916.892,VALID,0,VALID,95.3994,VALID,0,VALID,20.2068,VALID,34,VALID,1.27969,
2010-07-02, 00:54:05,VALID,916.88,VALID,0,VALID,95.1479,VALID,0,VALID,20.1693,VALID,20,VALID,1.84453,
2010-07-02, 00:55:05,VALID,916.894,VALID,0,VALID,95.003,VALID,0,VALID,20.1693,VALID,19,VALID,1.67656,
2010-07-02, 00:56:05,VALID,916.926,VALID,0,VALID,95.0183,VALID,0,VALID,20.1693,VALID,33,VALID,1.6043,
2010-07-02, 00:57:05,VALID,916.901,VALID,0,VALID,94.9878,VALID,0,VALID,20.1303,VALID,30,VALID,1.82383,
2010-07-02, 00:58:05,VALID,916.867,VALID,0,VALID,94.7209,VALID,0.107441,VALID,20.0718,VALID,8,VALID,1.94453,
2010-07-02, 00:59:05,VALID,916.917,VALID,0,VALID,94.5532,VALID,0.107441,VALID,20.0718,VALID,23,VALID,1.45664,
2010-07-02, 01:00:05,VALID,916.912,VALID,0,VALID,94.5456,VALID,0,VALID,20.0718,VALID,7,VALID,1.57969,
2010-07-02, 01:01:05,VALID,916.871,VALID,0,VALID,94.5685,VALID,0,VALID,20.0523,VALID,33,VALID,2.14414,
2010-07-02, 01:02:05,VALID,916.866,VALID,0,VALID,94.6752,VALID,0,VALID,20.0523,VALID,33,VALID,2.77891,
2010-07-02, 01:03:05,VALID,916.847,VALID,0,VALID,94.599,VALID,0,VALID,20.0328,VALID,5,VALID,1.41758,
2010-07-02, 01:04:05,VALID,916.828,VALID,0,VALID,94.4084,VALID,0,VALID,19.9938,VALID,350,VALID,1.30547,
2010-07-02, 01:05:05,VALID,916.843,VALID,0,VALID,94.6371,VALID,0,VALID,19.9938,VALID,36,VALID,1.29375,
2010-07-02, 01:06:05,VALID,916.824,VALID,0,VALID,94.7286,VALID,0,VALID,19.9938,VALID,36,VALID,0.925,
2010-07-02, 01:07:05,VALID,916.852,VALID,0,VALID,94.7896,VALID,0,VALID,19.9743,VALID,36,VALID,0.944141,
2010-07-02, 01:08:05,VALID,916.82,VALID,0,VALID,94.9725,VALID,0,VALID,19.9938,VALID,36,VALID,0.652734,
2010-07-02, 01:09:05,VALID,916.846,VALID,0,VALID,94.8505,VALID,0,VALID,19.9548,VALID,36,VALID,0.672656,
2010-07-02, 01:10:05,VALID,916.839,VALID,0,VALID,95.0106,VALID,0,VALID,19.9743,VALID,36,VALID,0.523438,
2010-07-02, 01:11:05,VALID,916.811,VALID,0,VALID,95.1326,VALID,0,VALID,20.0148,VALID,36,VALID,0.5625,
2010-07-02, 01:12:05,VALID,916.817,VALID,0,VALID,94.9801,VALID,0,VALID,19.9743,VALID,36,VALID,0.764453,
2010-07-02, 01:13:05,VALID,916.786,VALID,0,VALID,94.8963,VALID,0,VALID,19.9743,VALID,36,VALID,0.533203,
2010-07-02, 01:14:05,VALID,916.757,VALID,0,VALID,95.0183,VALID,0,VALID,20.0133,VALID,36,VALID,0.721484,
2010-07-02, 01:15:05,VALID,916.743,VALID,0,VALID,94.599,VALID,0,VALID,19.9743,VALID,36,VALID,0.682422,
2010-07-02, 01:16:05,VALID,916.738,VALID,0,VALID,94.3931,VALID,0,VALID,20.0133,VALID,30,VALID,0.712109,
2010-07-02, 01:17:05,VALID,916.737,VALID,0,VALID,94.5913,VALID,0,VALID,20.0718,VALID,30,VALID,1.00859,
2010-07-02, 01:18:05,VALID,916.719,VALID,0,VALID,94.7896,VALID,0,VALID,20.0913,VALID,30,VALID,0.475781,
2010-07-02, 01:19:05,VALID,916.714,VALID,0,VALID,94.7057,VALID,0,VALID,20.0718,VALID,30,VALID,0.409766,
2010-07-02, 01:20:05,VALID,916.698,VALID,0,VALID,94.7209,VALID,0,VALID,20.0718,VALID,11,VALID,0.992578,
2010-07-02, 01:21:05,VALID,916.665,VALID,0,VALID,94.8048,VALID,0,VALID,20.0538,VALID,358,VALID,0.900391,
2010-07-02, 01:22:05,VALID,916.659,VALID,0,VALID,95.0411,VALID,0,VALID,20.0538,VALID,358,VALID,0.953906,
2010-07-02, 01:23:05,VALID,916.65,VALID,0,VALID,95.1402,VALID,0,VALID,19.9953,VALID,358,VALID,1.10703,
2010-07-02, 01:24:05,VALID,916.637,VALID,0,VALID,95.2775,VALID,0,VALID,19.9353,VALID,358,VALID,0.961719,
2010-07-02, 01:25:05,VALID,916.602,VALID,0,VALID,95.4299,VALID,0,VALID,19.9158,VALID,358,VALID,1.03906,
2010-07-02, 01:26:05,VALID,916.582,VALID,0,VALID,95.4985,VALID,0,VALID,19.8963,VALID,358,VALID,1.18438,
2010-07-02, 01:27:05,VALID,916.573,VALID,0,VALID,95.6891,VALID,0,VALID,19.9158,VALID,358,VALID,1.1082,
2010-07-02, 01:28:05,VALID,916.558,VALID,0,VALID,95.6815,VALID,0,VALID,19.8963,VALID,22,VALID,1.30586,
2010-07-02, 01:29:05,VALID,916.558,VALID,0,VALID,95.6815,VALID,0,VALID,19.8768,VALID,20,VALID,1.44102,
2010-07-02, 01:30:05,VALID,916.551,VALID,0,VALID,95.6967,VALID,0,VALID,19.8768,VALID,19,VALID,1.28555,
2010-07-02, 01:31:05,VALID,916.527,VALID,0,VALID,95.59,VALID,0,VALID,19.8768,VALID,20,VALID,1.3168,
2010-07-02, 01:32:05,VALID,916.492,VALID,0,VALID,95.5443,VALID,0,VALID,19.8768,VALID,19,VALID,1.44648,
2010-07-02, 01:33:05,VALID,916.47,VALID,0,VALID,95.4909,VALID,0,VALID,19.8963,VALID,19,VALID,1.05352,
2010-07-02, 01:34:05,VALID,916.429,VALID,0,VALID,95.4071,VALID,0,VALID,19.9158,VALID,19,VALID,1.17227,
2010-07-02, 01:35:05,VALID,916.41,VALID,0,VALID,95.4909,VALID,0,VALID,19.9353,VALID,20,VALID,0.383984,
2010-07-02, 01:36:05,VALID,916.417,VALID,0,VALID,95.468,VALID,0,VALID,19.9548,VALID,20,VALID,1.11992,
2010-07-02, 01:37:05,VALID,916.391,VALID,0,VALID,95.3156,VALID,0,VALID,19.9353,VALID,19,VALID,1.28437,
2010-07-02, 01:38:05,VALID,916.385,VALID,0,VALID,95.2698,VALID,0,VALID,19.9353,VALID,40,VALID,0.948828,
2010-07-02, 01:39:05,VALID,916.388,VALID,0,VALID,95.247,VALID,0,VALID,19.9353,VALID,40,VALID,1.06719,
2010-07-02, 01:40:05,VALID,916.373,VALID,0,VALID,95.1783,VALID,0,VALID,19.9158,VALID,38,VALID,2.23164,
2010-07-02, 01:41:05,VALID,916.381,VALID,0,VALID,95.2241,VALID,0,VALID,19.9173,VALID,33,VALID,1.73164,
2010-07-02, 01:42:05,VALID,916.425,VALID,0,VALID,95.3156,VALID,0,VALID,19.8963,VALID,33,VALID,1.48281,
2010-07-02, 01:43:05,VALID,916.386,VALID,0,VALID,95.3156,VALID,0,VALID,19.8768,VALID,33,VALID,1.29922,
2010-07-02, 01:44:05,VALID,916.396,VALID,0,VALID,95.2622,VALID,0,VALID,19.8573,VALID,57,VALID,1.33477,
2010-07-02, 01:45:05,VALID,916.401,VALID,0,VALID,95.3689,VALID,0,VALID,19.8768,VALID,58,VALID,0.644141,
2010-07-02, 01:46:05,VALID,916.37,VALID,0,VALID,95.3689,VALID,0,VALID,19.8963,VALID,58,VALID,0.381641,
2010-07-02, 01:47:05,VALID,916.356,VALID,0,VALID,95.2546,VALID,0,VALID,19.8978,VALID,58,VALID,0.866016,
2010-07-02, 01:48:05,VALID,916.357,VALID,0,VALID,95.247,VALID,0,VALID,19.8768,VALID,58,VALID,1.04453,
2010-07-02, 01:49:05,VALID,916.319,VALID,0,VALID,95.3842,VALID,0,VALID,19.8963,VALID,58,VALID,0.199219,
2010-07-02, 01:50:05,VALID,916.309,VALID,0,VALID,95.4223,VALID,0,VALID,19.8963,VALID,58,VALID,0,
2010-07-02, 01:51:05,VALID,916.297,VALID,0,VALID,95.3842,VALID,0.107441,VALID,19.9158,VALID,58,VALID,0.203906,
2010-07-02, 01:52:05,VALID,916.317,VALID,0,VALID,95.3384,VALID,0,VALID,19.8963,VALID,58,VALID,0.324609,
2010-07-02, 01:53:05,VALID,916.318,VALID,0,VALID,95.3003,VALID,0,VALID,19.9173,VALID,58,VALID,0.261328,
2010-07-02, 01:54:05,VALID,916.332,VALID,0,VALID,95.2012,VALID,0,VALID,19.9173,VALID,58,VALID,0.844531,
2010-07-02, 01:55:05,VALID,916.326,VALID,0,VALID,95.0869,VALID,0,VALID,19.8978,VALID,58,VALID,0.192578,
2010-07-02, 01:56:05,VALID,916.345,VALID,0,VALID,94.9725,VALID,0,VALID,19.8978,VALID,58,VALID,0.397656,
2010-07-02, 01:57:05,VALID,916.328,VALID,0,VALID,94.9039,VALID,0,VALID,19.8978,VALID,58,VALID,0.160547,
2010-07-02, 01:58:05,VALID,916.33,VALID,0,VALID,94.6752,VALID,0,VALID,19.8768,VALID,58,VALID,0.299219,
2010-07-02, 01:59:05,VALID,916.353,VALID,0,VALID,94.4465,VALID,0,VALID,19.9173,VALID,58,VALID,0,
2010-07-02, 02:00:05,VALID,916.325,VALID,0,VALID,94.355,VALID,0,VALID,19.8963,VALID,58,VALID,0,
2010-07-02, 02:01:05,VALID,916.329,VALID,0,VALID,94.2788,VALID,0,VALID,19.9173,VALID,58,VALID,0.0015625,
2010-07-02, 02:02:05,VALID,916.344,VALID,0,VALID,94.2635,VALID,0,VALID,19.8963,VALID,58,VALID,0.117969,
2010-07-02, 02:03:05,VALID,916.318,VALID,0,VALID,94.2559,VALID,0,VALID,19.9158,VALID,58,VALID,0.0660156,
2010-07-02, 02:04:05,VALID,916.272,VALID,0,VALID,94.2102,VALID,0,VALID,19.9368,VALID,58,VALID,0.364453,
2010-07-02, 02:05:05,VALID,916.275,VALID,0,VALID,94.233,VALID,0,VALID,19.9368,VALID,58,VALID,0.405859,
2010-07-02, 02:06:05,VALID,916.228,VALID,0,VALID,94.2712,VALID,0,VALID,19.8963,VALID,58,VALID,0.366406,
2010-07-02, 02:07:05,VALID,916.202,VALID,0,VALID,94.4999,VALID,0,VALID,19.8978,VALID,57,VALID,0.673437,
2010-07-02, 02:08:05,VALID,916.173,VALID,0,VALID,94.7362,VALID,0,VALID,19.8768,VALID,58,VALID,1.00703,
2010-07-02, 02:09:05,VALID,916.177,VALID,0,VALID,94.8734,VALID,0,VALID,19.8378,VALID,58,VALID,1.1207,
2010-07-02, 02:10:05,VALID,916.161,VALID,0,VALID,94.9573,VALID,0,VALID,19.8588,VALID,58,VALID,0.7375,
2010-07-02, 02:11:05,VALID,916.177,VALID,0,VALID,95.0259,VALID,0,VALID,19.8393,VALID,102,VALID,0.629687,
2010-07-02, 02:12:05,VALID,916.189,VALID,0,VALID,95.1479,VALID,0,VALID,19.8183,VALID,102,VALID,0.419141,
2010-07-02, 02:13:05,VALID,916.172,VALID,0,VALID,95.2775,VALID,0,VALID,19.8588,VALID,102,VALID,0.181641,
2010-07-02, 02:14:05,VALID,916.184,VALID,0,VALID,95.3842,VALID,0,VALID,19.8378,VALID,102,VALID,0.29375,
2010-07-02, 02:15:05,VALID,916.15,VALID,0,VALID,95.4223,VALID,0,VALID,19.8393,VALID,102,VALID,0.741016,
2010-07-02, 02:16:05,VALID,916.151,VALID,0,VALID,95.468,VALID,0,VALID,19.8003,VALID,102,VALID,0.932422,
2010-07-02, 02:17:05,VALID,916.148,VALID,0,VALID,95.5443,VALID,0,VALID,19.7808,VALID,103,VALID,0.775,
2010-07-02, 02:18:05,VALID,916.118,VALID,0,VALID,95.6053,VALID,0,VALID,19.7808,VALID,102,VALID,0.640625,
2010-07-02, 02:19:05,VALID,916.133,VALID,0,VALID,95.6662,VALID,0,VALID,19.7403,VALID,103,VALID,0.9125,
2010-07-02, 02:20:04,VALID,916.117,VALID,0,VALID,95.6662,VALID,0,VALID,19.7808,VALID,103,VALID,1.03047,
2010-07-02, 02:21:04,VALID,916.125,VALID,0,VALID,95.712,VALID,0,VALID,19.7598,VALID,103,VALID,0.591016,
2010-07-02, 02:22:04,VALID,916.114,VALID,0,VALID,95.6586,VALID,0,VALID,19.7808,VALID,103,VALID,0.944141,
2010-07-02, 02:23:04,VALID,916.157,VALID,0,VALID,95.6281,VALID,0,VALID,19.7598,VALID,103,VALID,0.928516,
2010-07-02, 02:24:04,VALID,916.153,VALID,0,VALID,95.6053,VALID,0,VALID,19.7808,VALID,103,VALID,0.899609,
2010-07-02, 02:25:04,VALID,916.139,VALID,0,VALID,95.5595,VALID,0,VALID,19.7613,VALID,103,VALID,0.973047,
2010-07-02, 02:26:04,VALID,916.172,VALID,0,VALID,95.5748,VALID,0,VALID,19.7808,VALID,103,VALID,0.736719,
2010-07-02, 02:27:04,VALID,916.143,VALID,0,VALID,95.4985,VALID,0,VALID,19.7808,VALID,103,VALID,1.05508,
2010-07-02, 02:28:04,VALID,916.12,VALID,0,VALID,95.4604,VALID,0,VALID,19.7598,VALID,120,VALID,1.38984,
2010-07-02, 02:29:04,VALID,916.131,VALID,0,VALID,95.4147,VALID,0,VALID,19.7598,VALID,124,VALID,1.21016,
2010-07-02, 02:30:04,VALID,916.115,VALID,0,VALID,95.4071,VALID,0,VALID,19.7988,VALID,124,VALID,0.484375,
2010-07-02, 02:31:04,VALID,916.096,VALID,0,VALID,95.3384,VALID,0,VALID,19.7793,VALID,125,VALID,1.21602,
2010-07-02, 02:32:04,VALID,916.091,VALID,0,VALID,95.2775,VALID,0.107441,VALID,19.7988,VALID,124,VALID,1.12109,
2010-07-02, 02:33:04,VALID,916.09,VALID,0,VALID,95.2546,VALID,0,VALID,19.8198,VALID,124,VALID,1.04805,
2010-07-02, 02:34:04,VALID,916.089,VALID,0,VALID,95.2165,VALID,0,VALID,19.8183,VALID,124,VALID,0.905078,
2010-07-02, 02:35:04,VALID,916.06,VALID,0,VALID,95.1631,VALID,0,VALID,19.8198,VALID,125,VALID,0.860937,
2010-07-02, 02:36:04,VALID,916.054,VALID,0,VALID,95.1479,VALID,0,VALID,19.8393,VALID,125,VALID,0.716797,
2010-07-02, 02:37:04,VALID,916.042,VALID,0,VALID,95.1555,VALID,0,VALID,19.8393,VALID,154,VALID,1.15859,
2010-07-02, 02:38:04,VALID,916.05,VALID,0,VALID,95.2317,VALID,0,VALID,19.8393,VALID,152,VALID,0.983203,
2010-07-02, 02:39:04,VALID,916.022,VALID,0,VALID,95.3232,VALID,0,VALID,19.7988,VALID,152,VALID,0.742578,
2010-07-02, 02:40:04,VALID,915.983,VALID,0,VALID,95.3689,VALID,0,VALID,19.7808,VALID,152,VALID,0.921875,
2010-07-02, 02:41:04,VALID,916.015,VALID,0,VALID,95.4528,VALID,0,VALID,19.8003,VALID,152,VALID,1.02969,
2010-07-02, 02:42:04,VALID,915.985,VALID,0,VALID,95.4757,VALID,0,VALID,19.7598,VALID,142,VALID,1.2418,
2010-07-02, 02:43:04,VALID,915.974,VALID,0,VALID,95.5443,VALID,0,VALID,19.7793,VALID,141,VALID,1.12969,
2010-07-02, 02:44:04,VALID,915.968,VALID,0,VALID,95.5976,VALID,0,VALID,19.7808,VALID,140,VALID,1.20703,
2010-07-02, 02:45:04,VALID,915.927,VALID,0,VALID,95.6586,VALID,0,VALID,19.7808,VALID,132,VALID,1.08125,
2010-07-02, 02:46:04,VALID,915.932,VALID,0,VALID,95.7044,VALID,0,VALID,19.7793,VALID,132,VALID,0.838672,
2010-07-02, 02:47:04,VALID,915.89,VALID,0,VALID,95.7349,VALID,0,VALID,19.7598,VALID,132,VALID,1.24609,
2010-07-02, 02:48:04,VALID,915.857,VALID,0,VALID,95.7425,VALID,0,VALID,19.7598,VALID,132,VALID,0.81875,
2010-07-02, 02:49:04,VALID,915.858,VALID,0,VALID,95.7044,VALID,0,VALID,19.7598,VALID,127,VALID,0.663281,
2010-07-02, 02:50:04,VALID,915.843,VALID,0,VALID,95.6357,VALID,0.107441,VALID,19.7193,VALID,127,VALID,0.878516,
2010-07-02, 02:51:04,VALID,915.848,VALID,0,VALID,95.5367,VALID,0,VALID,19.7598,VALID,127,VALID,0.75625,
2010-07-02, 02:52:04,VALID,915.829,VALID,0,VALID,95.468,VALID,0,VALID,19.7598,VALID,127,VALID,0.7125,
2010-07-02, 02:53:04,VALID,915.818,VALID,0,VALID,95.4071,VALID,0,VALID,19.7793,VALID,127,VALID,0.640625,
2010-07-02, 02:54:04,VALID,915.811,VALID,0,VALID,95.3689,VALID,0,VALID,19.7988,VALID,127,VALID,0.69375,
2010-07-02, 02:55:04,VALID,915.795,VALID,0,VALID,95.4071,VALID,0,VALID,19.7793,VALID,127,VALID,0.553906,
2010-07-02, 02:56:04,VALID,915.781,VALID,0,VALID,95.4528,VALID,0,VALID,19.7988,VALID,127,VALID,0.532812,
2010-07-02, 02:57:04,VALID,915.773,VALID,0,VALID,95.5367,VALID,0,VALID,19.7598,VALID,127,VALID,0.900781,
2010-07-02, 02:58:04,VALID,915.784,VALID,0,VALID,95.6281,VALID,0,VALID,19.7598,VALID,127,VALID,0.804297,
2010-07-02, 02:59:04,VALID,915.785,VALID,0,VALID,95.7425,VALID,0,VALID,19.7403,VALID,127,VALID,1.06289,
2010-07-02, 03:00:04,VALID,915.754,VALID,0,VALID,95.8492,VALID,0,VALID,19.7598,VALID,127,VALID,0.730469,
2010-07-02, 03:01:04,VALID,915.733,VALID,0,VALID,95.895,VALID,0,VALID,19.7418,VALID,127,VALID,1.24336,
2010-07-02, 03:02:04,VALID,915.733,VALID,0,VALID,95.9712,VALID,0,VALID,19.7013,VALID,127,VALID,1.33281,
2010-07-02, 03:03:04,VALID,915.701,VALID,0,VALID,95.9941,VALID,0,VALID,19.7013,VALID,126,VALID,1.1832,
2010-07-02, 03:04:04,VALID,915.734,VALID,0,VALID,96.0474,VALID,0,VALID,19.6818,VALID,143,VALID,0.886328,
2010-07-02, 03:05:04,VALID,915.711,VALID,0,VALID,96.055,VALID,0,VALID,19.6818,VALID,143,VALID,0.85,
2010-07-02, 03:06:04,VALID,915.721,VALID,0,VALID,96.0703,VALID,0.107441,VALID,19.6818,VALID,152,VALID,1.12461,
2010-07-02, 03:07:04,VALID,915.678,VALID,0,VALID,96.0703,VALID,0,VALID,19.6818,VALID,152,VALID,1.13086,
2010-07-02, 03:08:04,VALID,915.695,VALID,0,VALID,95.9941,VALID,0,VALID,19.7013,VALID,152,VALID,1.19727,
2010-07-02, 03:09:04,VALID,915.696,VALID,0,VALID,95.8797,VALID,0,VALID,19.7013,VALID,142,VALID,1.24766,
2010-07-02, 03:10:04,VALID,915.679,VALID,0,VALID,95.7654,VALID,0,VALID,19.7013,VALID,134,VALID,1.08125,
2010-07-02, 03:11:04,VALID,915.656,VALID,0,VALID,95.7196,VALID,0,VALID,19.7208,VALID,134,VALID,0.729688,
2010-07-02, 03:12:04,VALID,915.685,VALID,0,VALID,95.6053,VALID,0,VALID,19.7223,VALID,134,VALID,1.21367,
2010-07-02, 03:13:04,VALID,915.708,VALID,0,VALID,95.4985,VALID,0,VALID,19.7208,VALID,130,VALID,0.959766,
2010-07-02, 03:14:04,VALID,915.659,VALID,0,VALID,95.4452,VALID,0,VALID,19.7208,VALID,148,VALID,0.849609,
2010-07-02, 03:15:04,VALID,915.666,VALID,0,VALID,95.3766,VALID,0,VALID,19.7403,VALID,136,VALID,0.775781,
2010-07-02, 03:16:04,VALID,915.675,VALID,0,VALID,95.2851,VALID,0,VALID,19.7388,VALID,138,VALID,0.771875,
2010-07-02, 03:17:04,VALID,915.651,VALID,0,VALID,95.2088,VALID,0,VALID,19.7808,VALID,140,VALID,1.12812,
2010-07-02, 03:18:04,VALID,915.661,VALID,0,VALID,95.1402,VALID,0,VALID,19.7793,VALID,127,VALID,0.531641,
2010-07-02, 03:19:04,VALID,915.633,VALID,0,VALID,94.9954,VALID,0,VALID,19.7793,VALID,140,VALID,1.20273,
2010-07-02, 03:20:04,VALID,915.619,VALID,0,VALID,94.8734,VALID,0,VALID,19.7793,VALID,124,VALID,0.678516,
2010-07-02, 03:21:04,VALID,915.583,VALID,0,VALID,94.7972,VALID,0,VALID,19.7793,VALID,124,VALID,1.11758,
2010-07-02, 03:22:04,VALID,915.559,VALID,0,VALID,94.7514,VALID,0,VALID,19.7793,VALID,124,VALID,1.12148,
2010-07-02, 03:23:04,VALID,915.56,VALID,0,VALID,94.6142,VALID,0,VALID,19.7793,VALID,124,VALID,1.27188,
2010-07-02, 03:24:04,VALID,915.526,VALID,0,VALID,94.5761,VALID,0.107441,VALID,19.7793,VALID,124,VALID,0.921875,
2010-07-02, 03:25:04,VALID,915.516,VALID,0,VALID,94.538,VALID,0,VALID,19.7793,VALID,124,VALID,1.37578,
2010-07-02, 03:26:04,VALID,915.522,VALID,0,VALID,94.5609,VALID,0,VALID,19.7988,VALID,135,VALID,1.0082,
2010-07-02, 03:27:04,VALID,915.49,VALID,0,VALID,94.4922,VALID,0,VALID,19.7793,VALID,160,VALID,1.22695,
2010-07-02, 03:28:04,VALID,915.474,VALID,0,VALID,94.4008,VALID,0,VALID,19.7793,VALID,165,VALID,1.35234,
2010-07-02, 03:29:04,VALID,915.472,VALID,0,VALID,94.3931,VALID,0.107441,VALID,19.7988,VALID,172,VALID,0.453906,
2010-07-02, 03:30:04,VALID,915.482,VALID,0,VALID,94.3626,VALID,0.107441,VALID,19.7988,VALID,118,VALID,1.175,
2010-07-02, 03:31:04,VALID,915.456,VALID,0,VALID,94.3321,VALID,0,VALID,19.8183,VALID,142,VALID,1.05586,
2010-07-02, 03:32:04,VALID,915.425,VALID,0,VALID,94.2864,VALID,0,VALID,19.7988,VALID,121,VALID,0.992969,
2010-07-02, 03:33:04,VALID,915.432,VALID,0,VALID,94.1416,VALID,0,VALID,19.7988,VALID,165,VALID,1.66133,
2010-07-02, 03:34:04,VALID,915.456,VALID,0,VALID,94.0348,VALID,0,VALID,19.8183,VALID,147,VALID,1.19219,
2010-07-02, 03:35:04,VALID,915.472,VALID,0,VALID,93.7299,VALID,0,VALID,19.8183,VALID,124,VALID,1.62344,
2010-07-02, 03:36:04,VALID,915.441,VALID,0,VALID,93.3716,VALID,0.107441,VALID,19.8573,VALID,136,VALID,1.75195,
2010-07-02, 03:37:04,VALID,915.448,VALID,0,VALID,93.2039,VALID,0.107441,VALID,19.8963,VALID,138,VALID,2.14102,
2010-07-02, 03:38:04,VALID,915.475,VALID,0,VALID,93.0362,VALID,0,VALID,19.8963,VALID,145,VALID,1.45742,
2010-07-02, 03:39:04,VALID,915.409,VALID,0,VALID,92.9981,VALID,0,VALID,19.9158,VALID,167,VALID,1.10352,
2010-07-02, 03:40:04,VALID,915.408,VALID,0,VALID,92.8685,VALID,0,VALID,19.9548,VALID,197,VALID,0.825391,
2010-07-02, 03:41:04,VALID,915.39,VALID,0,VALID,92.6474,VALID,0,VALID,19.9548,VALID,158,VALID,1.66992,
2010-07-02, 03:42:04,VALID,915.394,VALID,0,VALID,92.5559,VALID,0,VALID,19.9743,VALID,130,VALID,1.01719,
2010-07-02, 03:43:04,VALID,915.43,VALID,0,VALID,92.6245,VALID,0.107441,VALID,19.9938,VALID,176,VALID,1.21016,
2010-07-02, 03:44:04,VALID,915.412,VALID,0,VALID,92.7007,VALID,0.107441,VALID,19.9938,VALID,164,VALID,1.0707,
2010-07-02, 03:45:04,VALID,915.406,VALID,0,VALID,92.6779,VALID,0,VALID,19.9938,VALID,141,VALID,0.594141,